GFSSW_prec_cloud_336.txt.gz
Cloud_Cover
100 100 100 100 99 100 100 100 100 100 100 100 100 100 100 100 100 100 100 100 56 6 41 99 100 100 100 24 16 96 30 5 5 0 4 5 5 4 1 1 0 0 0 0 0
100 100 100 100 100 100 100 100 100 100 100 100 100 100 100 100 100 100 100 100 100 50 58 42 68 100 100 82 62 100 6 22 30 7 18 5 5 5 2 2 0 0 1 0 0
100 100 100 100 100 100 100 100 100 100 100 100 100 100 100 100 100 100 100 100 98 33 61 65 76 100 100 100 90 96 34 26 7 13 61 9 10 5 5 16 5 5 5 5 5
44 86 100 100 100 100 100 100 100 100 100 100 100 100 100 100 100 100 100 100 100 73 100 100 99 100 96 100 100 100 82 76 44 53 88 30 5 5 5 5 5 5 35 45 12
0 0 6 100 100 100 100 100 100 100 100 100 100 100 100 100 100 100 100 100 100 100 100 100 100 100 98 94 100 100 76 93 81 100 100 94 42 14 5 5 5 5 6 92 5
0 0 0 0 20 100 100 100 100 100 96 100 100 100 100 100 100 100 100 100 100 100 100 100 100 100 100 100 96 100 46 67 86 93 100 100 92 45 61 5 5 5 5 5 5
100 70 0 0 0 41 100 100 100 100 100 100 100 100 100 100 100 100 100 100 100 100 100 100 100 100 100 100 100 100 81 100 99 100 96 57 100 31 97 46 7 5 5 68 5
11 100 100 1 0 0 40 100 100 100 100 100 100 99 100 100 100 100 100 100 100 100 100 100 100 100 100 100 100 100 100 100 100 100 100 88 85 68 78 66 21 65 74 12 30
42 100 100 100 0 0 0 21 100 100 100 100 100 100 100 100 100 100 100 100 100 100 100 100 100 100 100 100 100 100 100 100 100 100 100 100 99 79 62 95 85 100 100 85 84
85 32 45 99 72 0 0 98 100 100 100 100 100 100 100 100 100 100 100 100 100 100 100 100 100 100 100 100 100 100 100 100 99 100 100 100 100 100 100 100 100 100 100 99 88
48 100 39 5 100 4 1 68 100 100 100 100 100 100 100 100 100 100 100 100 100 100 100 100 100 100 100 100 100 100 100 100 64 50 79 100 100 100 100 100 100 100 100 100 100
100 99 98 41 85 86 45 100 33 62 98 93 100 100 100 100 100 100 100 88 100 100 100 100 100 100 100 100 100 100 100 100 100 100 100 100 100 92 100 100 100 100 100 100 100
30 100 100 94 45 100 13 21 100 100 100 17 29 100 100 100 100 100 100 100 99 100 100 100 100 100 100 100 100 100 100 100 100 100 91 67 97 100 99 100 100 100 100 100 100
57 90 100 100 65 77 90 0 81 100 88 22 81 37 100 100 100 100 100 100 100 100 100 93 93 100 100 100 100 100 100 100 100 100 100 100 97 100 100 100 100 100 100 100 100
89 95 100 100 54 96 100 4 12 70 100 0 52 30 5 100 100 100 100 100 100 100 100 100 100 100 100 100 100 100 100 100 100 100 100 100 92 100 100 100 100 100 100 100 100
6 69 100 100 98 17 99 42 3 100 100 71 98 100 100 98 100 100 100 100 100 100 100 100 99 100 100 100 100 100 100 100 100 100 100 100 100 100 100 100 100 100 100 100 100
6 74 100 98 98 86 92 100 97 100 4 54 100 100 100 100 100 100 100 100 100 100 100 100 100 100 100 100 100 99 100 100 100 100 100 100 100 100 100 100 100 100 100 100 100
11 36 50 100 100 100 100 100 100 71 6 2 27 100 100 100 100 100 100 100 100 100 100 100 100 100 100 100 100 100 100 100 100 100 100 100 100 100 100 100 100 100 100 100 100
10 56 100 78 100 100 100 100 93 3 2 24 98 100 100 100 66 100 100 60 100 100 100 100 100 100 100 100 100 100 100 100 100 100 52 50 100 100 100 100 100 100 100 100 100
100 100 90 77 100 100 100 100 98 4 0 5 5 95 100 100 100 100 100 66 24 100 100 100 100 100 100 100 100 100 100 100 92 19 8 5 9 100 100 100 100 100 100 100 100
100 100 66 100 100 100 100 100 100 5 2 2 5 6 100 100 98 100 42 6 5 80 100 100 100 100 100 100 100 100 100 100 100 100 98 81 71 100 100 100 100 100 100 100 100
100 100 99 100 100 100 100 100 90 49 5 71 87 12 62 100 100 100 37 2 0 60 100 100 100 100 100 100 100 100 100 100 100 100 100 100 97 100 100 100 100 100 100 100 100
100 100 100 100 100 100 100 99 100 84 100 91 100 23 90 29 92 100 6 5 1 6 100 100 100 100 100 100 100 100 100 100 100 100 96 98 47 98 100 100 100 100 100 100 93
100 100 100 100 100 100 100 100 99 51 100 100 96 100 38 100 15 27 48 5 4 2 89 100 100 100 100 100 100 100 100 100 100 100 56 24 52 11 43 27 88 100 93 37 51
100 100 100 100 100 100 100 100 94 100 100 100 100 100 100 100 98 26 5 7 5 5 5 100 100 100 100 100 100 100 100 100 100 100 94 49 19 28 8 63 6 66 97 98 69
100 100 46 59 100 100 100 100 100 100 100 100 99 100 100 100 100 36 4 20 5 47 72 86 100 100 100 100 100 100 100 100 100 100 99 29 92 100 100 99 99 57 61 99 100
100 100 100 100 100 100 100 100 100 100 100 100 98 100 100 100 100 23 14 9 5 4 54 94 100 100 100 100 100 100 100 100 100 100 100 91 91 100 82 95 95 99 100 82 48

GFSSW_prec_cloud_339.txt.gz
Cloud_Cover
100 98 100 100 100 96 100 100 100 100 100 100 100 100 100 100 100 100 100 100 100 100 65 94 70 56 14 100 100 29 9 5 6 17 5 4 2 4 0 0 0 0 0 0 23
100 100 100 100 100 100 100 100 100 100 100 100 100 100 100 100 100 100 100 100 100 100 100 88 80 75 45 93 100 93 6 61 26 5 12 5 5 5 5 4 0 0 0 0 35
30 100 100 100 100 100 100 100 100 100 100 100 100 100 100 100 100 100 100 100 100 100 100 100 98 87 78 98 100 100 5 15 49 25 96 38 57 17 5 5 5 0 0 0 31
0 1 98 100 96 100 100 100 100 98 99 100 100 100 100 100 100 100 100 100 100 100 100 100 100 98 87 95 100 100 74 55 22 84 33 78 86 50 5 5 5 5 5 2 0
99 1 0 3 7 79 100 100 100 100 100 100 100 100 100 100 100 100 100 100 100 100 100 100 100 100 88 100 100 100 76 100 91 100 91 25 50 20 48 15 14 44 5 5 5
100 100 57 0 0 0 100 100 100 100 100 100 97 100 100 100 100 100 100 100 100 100 100 100 100 100 100 100 100 100 100 86 100 100 100 74 66 100 93 76 16 77 81 39 7
40 9 100 97 0 0 0 91 100 100 100 100 100 100 100 100 100 100 100 100 100 100 100 100 100 100 100 100 100 100 100 100 100 100 100 85 99 47 70 18 47 5 54 37 5
100 10 17 100 100 0 0 0 97 100 100 100 100 100 100 100 100 100 100 100 100 100 100 100 100 100 100 100 100 100 100 100 100 100 100 90 100 38 35 19 16 51 5 12 7
99 98 92 100 100 86 0 0 4 100 100 100 100 100 100 100 100 100 100 100 100 100 100 100 100 100 100 100 100 100 100 100 100 100 100 100 100 100 11 100 57 67 75 29 67
100 27 94 27 97 100 33 0 30 100 100 100 100 100 100 100 100 100 100 100 100 100 100 100 100 100 100 100 100 100 100 100 100 100 100 100 100 50 100 100 100 100 70 96 22
100 100 73 11 76 37 60 20 87 86 100 69 53 46 100 100 100 100 100 100 100 100 100 100 100 100 100 100 100 100 100 100 100 100 100 100 100 100 100 100 100 100 100 100 100
100 100 100 100 62 32 78 27 56 74 88 7 23 7 97 100 100 100 100 100 100 100 100 89 100 100 100 100 100 100 100 100 100 100 100 100 100 100 100 100 100 100 100 100 100
100 100 100 100 100 54 83 100 85 91 69 3 5 0 58 68 100 100 100 100 100 100 100 71 100 100 100 100 100 100 100 100 100 100 100 100 100 100 96 98 100 100 100 100 100
100 19 67 100 93 24 62 100 4 100 100 12 81 25 2 52 57 100 100 100 100 100 100 100 99 100 100 100 76 100 100 100 100 100 100 100 100 100 100 100 100 100 100 100 100
100 54 5 5 97 33 5 94 97 96 100 0 27 6 1 34 4 8 83 100 100 100 100 100 100 100 100 100 100 100 100 100 100 100 100 100 100 100 100 100 100 100 100 100 100
100 100 48 20 90 100 85 68 100 100 47 3 44 92 82 98 77 2 30 97 99 100 100 100 100 100 100 100 100 86 100 100 100 98 100 100 94 100 100 100 100 100 100 100 100
100 100 97 76 57 100 100 100 100 100 2 22 78 100 58 95 100 91 26 89 97 98 100 100 100 100 100 100 100 100 100 100 100 100 61 100 96 100 100 100 100 100 100 100 100
100 100 100 66 99 100 100 100 100 1 1 2 39 100 100 100 100 100 62 30 37 18 12 100 100 100 100 100 100 100 100 100 100 100 100 100 100 100 100 100 100 100 100 100 100
100 100 100 46 100 100 100 100 85 62 0 5 64 100 100 100 88 100 100 10 6 5 13 5 97 100 100 100 100 100 100 100 100 100 94 85 59 100 100 100 100 100 100 100 100
100 100 99 76 100 100 100 100 63 7 1 0 4 24 100 100 100 100 100 42 5 5 5 5 7 100 100 100 100 100 100 100 100 100 100 99 60 100 100 100 100 100 100 100 100
100 100 73 100 100 100 100 100 90 17 30 0 2 5 6 100 100 100 40 3 2 5 16 8 5 52 100 100 100 100 100 100 100 100 97 100 28 100 100 100 100 100 100 100 100
100 100 7 100 100 100 100 100 38 40 100 39 3 0 34 36 100 100 51 0 0 2 30 52 97 90 21 100 100 100 100 100 100 45 40 81 35 100 100 100 100 100 100 100 100
100 99 37 100 100 100 100 100 70 100 97 100 24 5 2 16 92 46 49 4 3 17 6 19 100 100 99 51 91 100 100 100 100 100 58 10 27 100 80 80 100 100 100 100 100
100 100 100 100 100 100 100 87 100 81 98 100 37 80 35 53 92 60 91 92 83 5 18 42 38 8 1 0 4 100 100 100 100 100 38 8 52 86 100 100 100 100 100 100 100
100 100 100 100 100 100 100 100 100 100 88 100 100 100 82 85 81 90 5 60 100 63 85 98 78 5 4 4 0 87 100 100 100 100 91 49 40 92 25 98 100 100 100 100 100
100 100 100 100 100 100 100 100 100 100 100 100 100 93 14 100 97 51 43 9 84 86 100 97 38 12 6 5 5 5 100 100 100 100 100 97 100 100 28 6 6 99 85 100 100
100 100 100 100 100 100 100 100 46 100 100 100 100 100 95 57 100 100 100 100 82 6 74 100 70 41 61 11 59 97 54 100 100 100 100 93 100 100 100 100 99 100 100 100 100

GFSSW_prec_cloud_342.txt.gz
Cloud_Cover
100 100 100 100 100 100 70 100 100 100 100 100 100 100 100 100 100 100 100 100 76 5 97 44 87 100 99 96 100 100 7 5 70 34 6 40 6 5 5 5 5 5 4 0 0
36 100 100 100 100 100 100 96 100 100 100 100 100 100 100 100 100 100 100 100 100 83 86 86 32 22 100 97 100 98 8 70 83 56 5 42 71 5 14 5 17 5 5 5 6
0 5 99 100 100 100 100 100 100 100 100 100 100 100 100 100 100 100 100 100 100 100 100 100 95 9 80 100 100 100 23 100 100 100 5 5 62 66 24 21 5 5 5 5 5
100 3 0 2 97 100 100 100 100 100 100 100 100 100 100 100 100 100 100 100 100 100 100 100 100 41 26 98 100 100 45 100 100 100 84 72 64 86 85 43 15 5 5 18 37
100 99 30 0 0 52 100 100 100 100 100 100 100 100 100 100 100 100 100 100 100 100 100 100 100 100 93 80 99 100 35 100 100 100 99 31 56 60 93 50 53 28 13 46 50
81 11 100 100 33 0 3 56 100 100 100 100 100 100 100 100 100 100 100 100 100 100 100 100 100 100 100 100 97 100 92 94 100 100 100 99 100 90 87 93 95 88 56 57 52
72 21 57 100 100 23 0 0 57 100 100 100 100 100 100 100 100 100 100 100 100 100 100 100 100 99 100 100 100 100 100 82 100 100 100 100 100 87 100 48 59 78 100 95 50
92 56 100 61 99 100 14 0 0 24 100 100 100 100 100 100 100 100 100 100 100 100 100 100 100 100 100 100 100 100 100 100 100 100 100 100 100 56 82 99 87 93 100 85 14
35 98 6 71 46 97 99 0 0 0 98 100 100 100 100 100 100 100 100 100 100 100 100 100 100 100 100 100 100 100 100 100 100 100 100 100 100 99 39 95 79 78 96 89 76
86 14 94 22 88 100 87 35 0 87 100 100 100 94 100 100 100 100 100 100 100 100 100 100 100 100 100 100 100 100 100 100 100 100 100 100 100 33 98 100 100 100 100 98 89
100 95 35 36 9 22 62 14 33 34 100 2 18 3 100 100 100 100 100 100 100 100 100 100 100 100 100 100 100 100 100 100 100 100 100 100 100 100 64 100 100 100 100 100 100
100 100 97 100 28 59 36 65 15 76 65 10 1 58 38 80 100 100 100 100 100 100 100 100 100 100 100 100 100 100 100 100 100 100 100 100 100 100 100 100 100 100 100 100 100
100 100 100 100 99 80 89 14 16 100 36 5 0 0 34 22 22 100 100 100 100 100 100 100 100 100 100 100 100 100 100 100 100 100 100 100 100 100 100 100 100 100 100 100 100
98 100 100 100 90 99 75 96 98 69 69 5 40 5 0 7 50 21 100 100 100 100 100 100 100 100 100 100 100 100 100 100 100 100 100 100 100 100 100 100 100 100 100 100 100
100 100 100 100 100 100 100 100 86 99 44 0 16 2 0 0 0 0 4 53 96 70 5 98 100 100 100 100 100 100 100 100 100 100 100 100 68 100 100 100 100 100 100 100 100
100 100 100 100 100 100 100 100 100 100 35 0 24 94 96 17 0 4 4 54 88 72 5 9 96 100 100 100 100 100 100 100 100 100 7 99 100 100 100 100 100 100 100 100 100
100 84 91 89 78 100 100 100 100 100 0 4 77 100 23 85 71 15 44 100 72 57 64 10 5 35 100 100 100 100 100 100 100 93 6 65 96 100 100 100 100 100 100 100 100
100 100 99 100 100 70 97 100 100 2 0 4 57 34 100 85 98 45 20 98 65 19 27 90 38 7 95 100 100 100 100 100 100 100 100 100 50 100 100 100 100 100 100 100 100
100 100 90 28 100 100 100 100 95 0 0 0 20 97 100 100 81 99 64 17 5 14 18 5 25 3 2 46 100 100 99 100 100 100 70 9 8 100 100 100 100 100 100 100 100
100 100 100 100 100 100 100 100 73 5 0 0 4 5 8 88 92 100 100 40 34 5 5 4 5 1 1 2 5 11 100 100 100 57 5 0 5 98 100 100 100 100 100 100 100
100 100 92 100 100 100 100 97 96 5 5 2 0 4 12 86 16 86 53 5 5 5 6 5 4 4 5 4 3 1 7 100 100 100 7 2 1 19 81 100 100 100 100 100 100
100 100 51 100 100 100 100 100 41 76 29 7 39 0 1 24 16 92 6 2 5 5 14 5 86 61 3 3 5 5 4 6 28 100 47 8 0 5 96 100 100 100 100 100 100
100 100 100 100 100 100 100 100 100 100 39 60 100 76 5 5 5 44 12 34 13 36 8 18 86 100 99 55 12 1 2 1 3 90 100 100 2 24 29 5 95 100 100 100 100
100 100 100 100 100 100 100 100 100 100 100 50 32 76 98 22 2 68 5 8 84 48 5 58 7 3 1 0 0 2 0 0 0 28 35 92 49 5 20 39 100 100 100 100 100
100 98 100 100 99 100 100 100 100 100 100 100 99 58 15 53 57 5 2 6 76 88 5 100 82 5 0 0 0 0 0 0 0 0 0 6 88 100 100 94 100 100 100 100 100
100 95 100 60 52 100 100 62 100 100 100 100 84 6 5 100 73 5 2 5 10 33 88 100 100 16 5 5 5 4 0 0 0 0 0 0 1 100 100 100 95 45 66 100 100
99 92 100 100 94 100 84 4 81 100 100 71 100 81 72 91 3 76 96 60 99 100 88 86 78 98 92 50 90 100 10 0 0 0 0 0 0 0 68 100 100 100 100 100 100

GFSSW_prec_cloud_345.txt.gz
Cloud_Cover
94 100 20 63 100 100 100 100 100 100 100 100 100 100 100 100 100 100 100 100 100 100 100 75 67 79 100 100 100 100 38 11 31 5 48 5 5 5 5 52 57 35 5 63 6
0 83 100 100 100 100 100 100 100 100 100 100 100 100 100 100 100 100 100 100 100 100 100 97 65 83 66 100 100 100 78 91 62 41 13 58 5 5 7 6 74 74 15 5 6
0 4 40 93 37 74 99 100 100 100 100 100 100 100 100 100 100 100 100 100 100 100 100 100 39 100 48 59 100 100 96 99 71 69 10 61 44 5 5 47 28 57 42 28 65
0 0 0 0 0 71 100 96 100 100 100 100 100 100 100 100 100 100 100 100 100 100 100 99 99 46 100 94 78 92 100 88 77 91 95 40 48 49 7 60 89 98 33 38 46
100 3 21 0 8 0 0 44 97 100 100 100 100 100 100 100 100 100 100 100 100 100 100 100 82 91 79 100 100 100 95 100 55 92 100 96 84 82 42 19 99 42 72 53 10
5 15 77 1 0 4 0 0 2 100 100 100 100 100 100 100 100 100 100 100 100 100 100 100 100 98 38 97 100 100 100 100 96 100 60 98 72 94 69 84 97 87 100 66 86
100 11 5 42 4 1 43 0 0 8 100 100 100 100 100 100 100 100 100 100 100 100 100 100 100 100 100 98 92 100 100 100 100 100 100 100 100 100 100 100 73 88 70 98 100
99 100 93 7 11 5 74 67 0 0 0 92 100 100 100 100 100 100 100 100 100 100 100 100 100 100 100 100 100 100 100 93 100 100 100 90 100 98 75 100 46 93 77 100 100
98 94 49 100 9 5 94 28 1 0 0 100 100 100 99 98 100 100 100 100 100 100 100 100 100 100 100 100 100 100 100 100 100 100 100 95 100 96 5 35 74 98 82 100 100
99 100 100 62 40 56 12 22 6 0 59 100 100 96 2 100 100 100 100 100 100 100 100 100 100 100 100 100 100 100 100 100 100 94 100 100 100 98 99 35 88 76 100 100 98
100 100 100 87 9 77 18 46 32 79 86 4 0 0 0 0 15 100 100 100 100 100 100 100 100 100 100 100 100 100 100 100 100 100 100 100 100 100 100 100 100 100 92 100 100
98 100 100 100 100 97 17 99 61 92 56 5 0 98 2 0 0 1 96 100 100 100 100 100 100 100 100 100 100 100 100 100 100 100 100 100 100 100 100 100 100 100 100 100 99
100 100 100 100 100 99 74 62 59 49 100 4 4 1 27 32 0 0 2 100 100 100 100 100 100 100 100 100 100 100 100 100 100 100 100 100 100 100 100 100 100 100 100 100 100
100 100 100 100 100 100 96 98 94 49 55 1 0 4 0 99 70 0 3 12 99 100 100 100 100 100 100 100 100 100 100 100 100 100 100 100 100 100 100 100 100 100 100 100 100
100 100 100 100 100 100 100 100 100 98 43 0 0 2 0 20 0 0 0 4 3 90 100 100 100 100 100 100 100 100 100 100 100 100 100 100 100 100 100 100 100 100 100 100 100
100 100 100 100 100 100 100 100 100 100 35 1 24 5 2 1 0 0 0 2 0 2 53 88 100 100 100 100 100 100 100 100 100 100 100 100 68 98 100 100 100 100 100 100 100
100 100 100 100 100 100 100 100 100 100 0 0 46 92 14 100 5 3 2 4 2 4 4 72 100 100 100 100 100 100 100 100 100 100 100 100 100 100 100 100 100 100 100 100 100
100 100 100 100 100 100 100 100 100 0 0 0 3 62 34 19 21 63 3 4 2 1 0 5 76 100 100 100 100 100 98 40 84 100 95 100 76 100 100 100 100 100 100 100 100
100 100 100 100 100 100 100 100 97 0 5 5 20 100 100 71 4 100 80 5 4 4 7 5 20 9 32 80 48 77 95 99 89 99 100 11 2 81 100 100 100 100 100 100 100
100 100 100 100 100 100 100 100 4 1 27 38 72 21 63 92 100 100 97 8 21 32 5 1 35 4 5 5 5 4 3 4 40 63 91 5 3 0 99 100 100 100 100 100 100
100 100 79 100 100 100 100 100 4 2 5 98 100 100 70 99 78 70 25 69 5 55 10 13 18 8 5 4 0 1 5 3 5 3 0 1 4 5 14 100 100 100 100 100 100
100 100 71 100 100 100 100 100 100 5 4 24 100 100 8 29 98 33 19 89 100 100 95 61 99 94 0 2 0 0 0 0 0 0 0 0 1 100 100 100 91 73 100 100 100
100 100 100 100 100 100 100 100 100 99 20 72 100 94 81 67 100 44 5 97 100 100 80 68 100 100 100 58 3 0 0 1 1 46 4 9 1 7 98 100 100 70 25 100 100
100 100 100 100 100 100 100 100 100 100 100 100 100 100 100 100 64 95 100 71 52 100 42 55 33 79 1 5 4 4 5 3 0 4 0 0 0 0 2 85 100 100 98 100 100
100 58 100 100 97 96 100 100 100 100 100 100 100 100 100 100 100 40 5 5 12 53 46 99 93 12 4 5 49 4 5 5 5 0 0 0 0 0 0 16 97 97 100 100 100
100 100 100 97 93 100 100 100 100 100 100 80 100 100 100 100 67 68 81 5 70 72 100 100 99 5 69 5 5 63 5 2 2 0 0 0 0 0 0 0 1 100 100 100 100
100 100 100 100 100 100 90 34 97 100 100 100 90 42 32 91 92 74 33 18 1 5 100 100 100 100 68 5 38 100 38 0 0 0 0 0 1 9 0 0 0 0 93 100 100

GFSSW_prec_cloud_348.txt.gz
Cloud_Cover
72 22 2 97 41 100 100 100 100 70 49 97 100 100 100 100 100 100 100 100 100 100 100 100 74 72 16 17 49 23 5 5 5 52 10 5 5 5 5 5 5 5 5 76 36
12 12 16 3 100 92 100 100 99 85 100 100 97 100 100 100 100 100 100 100 100 100 100 100 100 100 67 91 100 100 20 5 8 5 28 18 24 5 5 5 5 5 5 71 69
5 0 5 0 16 75 17 39 98 100 68 100 100 100 100 100 100 100 100 100 100 100 100 100 100 100 99 42 96 100 100 100 71 14 5 72 58 33 7 8 24 52 5 35 30
100 21 5 5 0 0 0 54 84 52 89 100 100 100 100 100 100 100 100 100 100 100 100 100 100 82 100 100 52 89 100 100 100 100 90 100 93 5 5 89 25 30 58 13 8
100 100 74 4 3 0 45 0 1 52 79 41 99 84 100 100 100 100 100 100 100 100 100 100 100 98 100 100 93 98 93 100 100 100 100 100 94 100 11 5 29 75 38 84 98
98 100 90 36 44 2 0 41 0 0 10 97 100 96 80 100 100 100 100 100 100 100 100 100 100 100 100 100 100 87 99 55 100 100 100 100 100 100 24 80 45 66 26 45 99
76 100 100 44 5 5 4 80 48 0 0 0 100 100 100 99 100 100 100 100 100 100 100 100 100 100 100 100 100 100 83 100 100 100 100 100 99 100 43 100 44 5 43 69 96
100 100 99 100 100 48 5 4 5 0 0 0 100 100 100 17 100 100 100 100 100 100 100 100 100 100 100 100 100 100 70 98 100 100 100 99 100 100 93 96 99 100 92 60 77
100 100 100 100 100 13 56 5 72 2 0 0 100 100 70 77 61 100 100 100 100 100 100 100 100 100 100 100 100 100 100 98 100 100 100 82 100 100 87 100 100 100 98 81 72
100 100 98 100 100 86 85 65 4 5 0 15 100 65 0 0 8 100 100 100 100 100 100 100 100 100 100 100 100 100 100 100 100 60 100 81 100 100 100 100 100 100 100 100 100
100 100 65 93 100 100 100 100 38 24 61 0 0 0 0 0 0 0 100 100 100 100 100 100 100 100 100 100 100 100 100 100 100 100 100 100 100 100 100 100 100 100 100 100 100
99 96 97 100 73 100 100 100 99 85 65 54 0 36 0 0 0 0 0 36 100 100 100 100 100 100 100 100 100 100 100 100 100 100 100 100 100 100 100 100 100 100 100 100 100
100 96 100 100 100 99 100 100 100 95 70 5 4 0 0 1 9 0 0 0 9 100 100 100 100 100 100 100 100 100 100 100 100 100 100 100 100 100 100 100 100 100 100 100 100
100 100 100 100 96 100 98 99 100 100 53 2 0 1 0 38 57 0 0 0 0 98 100 100 100 100 100 100 100 100 100 100 100 100 100 100 100 100 100 100 100 100 100 100 100
100 100 100 100 100 100 77 100 100 100 100 1 2 0 0 2 0 0 0 0 0 0 0 95 100 100 100 100 100 100 100 100 100 100 100 100 100 100 100 100 100 100 100 100 100
100 100 100 100 100 100 91 100 100 100 69 4 0 2 5 0 0 1 0 0 0 0 3 3 30 100 100 100 100 100 100 100 100 100 55 100 100 100 100 100 100 100 100 100 100
100 100 100 100 37 100 100 100 100 94 0 0 6 91 28 19 3 5 20 5 3 49 4 4 4 92 100 100 100 100 100 100 100 100 99 100 100 54 99 100 100 100 100 100 100
100 100 99 100 100 100 100 100 100 0 0 0 1 68 100 87 32 3 41 4 4 0 0 0 0 4 98 100 100 100 100 94 100 76 8 9 11 100 100 100 100 100 100 96 100
100 100 100 100 100 100 100 100 97 0 0 4 8 67 87 82 6 12 31 8 5 5 22 0 0 2 22 7 7 96 100 100 100 66 50 34 6 5 99 100 100 100 100 100 100
100 100 98 100 100 100 100 100 99 5 1 50 12 72 8 31 95 54 86 5 5 5 42 6 6 3 4 11 5 2 10 90 63 39 93 35 5 8 69 53 97 100 100 100 100
100 100 32 100 100 100 100 100 100 35 80 49 98 8 99 98 46 18 37 4 2 5 96 86 38 6 45 1 6 95 47 62 45 75 17 5 49 100 63 99 90 100 100 100 100
100 100 96 100 100 100 100 100 83 28 100 100 100 100 5 100 100 78 21 6 5 48 100 78 30 97 8 5 0 0 9 21 5 0 3 5 60 100 100 100 100 77 67 6 68
100 100 100 100 100 100 100 100 100 100 100 100 100 100 100 84 89 100 74 18 99 68 50 100 99 94 100 96 4 1 0 0 1 4 4 4 94 100 17 10 5 3 8 6 42
100 100 100 100 100 100 100 100 100 100 93 100 100 100 100 90 100 34 87 99 100 94 100 100 100 84 5 0 17 12 7 18 5 5 0 0 3 5 4 0 2 0 0 0 97
100 98 47 89 59 95 100 100 100 100 100 100 100 100 100 100 100 97 92 12 23 48 100 100 100 100 22 5 100 11 5 5 5 0 0 0 0 2 0 0 0 0 0 0 0
100 100 93 100 90 100 100 100 100 100 100 100 100 100 100 100 100 100 100 100 100 100 100 100 100 100 100 9 92 31 100 39 5 0 0 0 1 69 10 0 0 0 0 0 0
100 100 100 100 100 100 71 24 100 100 100 100 100 100 100 100 100 100 100 100 100 100 100 100 100 100 85 5 96 100 68 21 2 0 0 0 40 100 0 0 0 0 0 0 0